CW4541 Weather Reports


time (UTC)temp
C
wind
direction
speed
KPH
gust
KPH
rain 1hr
cm
rain 24hr
cm
rain mn
cm
humidity
%
barometer
mb
20260903000606 21 20 4.8 14.5 0.00 0.00 0.00 38 1019.4
20260903000112 21 18 3.2 19.3 0.00 0.00 0.00 36 1019.4
20260902230606 25 202 3.2 12.9 0.00 0.00 0.00 26 1019.2
20260902230111 25 216 1.6 12.9 0.00 0.00 0.00 26 1019.1
20260902220605 25 169 1.6 11.3 0.00 0.00 0.00 27 1020.0
20260902220112 25 235 1.6 11.3 0.00 0.00 0.00 28 1020.1
20260902210606 24 20 3.2 16.1 0.00 0.00 0.00 26 1020.7
20260902210111 24 20 4.8 16.1 0.00 0.00 0.00 26 1020.6
20260902200606 22 19 1.6 16.1 0.00 0.00 0.00 30 1021.0
20260902200111 23 14 1.6 16.1 0.00 0.00 0.00 29 1021.2
20260902190605 22 13 4.8 14.5 0.00 0.00 0.00 33 1022.0
20260902190111 22 13 3.2 14.5 0.00 0.00 0.00 34 1021.9
20260902180606 21 14 4.8 16.1 0.00 0.00 0.00 37 1022.6
20260902180111 21 14 6.4 16.1 0.00 0.00 0.00 39 1022.8
20260902170606 21 16 3.2 22.5 0.00 0.00 0.00 41 1022.7
20260902160606 19 15 3.2 16.1 0.00 0.00 0.00 46 1022.8
20260902160111 19 15 3.2 16.1 0.00 0.00 0.00 47 1022.8
20260902150605 17 14 3.2 9.7 0.00 0.00 0.00 52 1023.7
20260902150111 17 16 1.6 12.9 0.00 0.00 0.00 54 1023.7
20260902140605 13 197 0.0 4.8 0.00 0.00 0.00 67 1023.4
20260902130605 10 199 0.0 1.6 0.00 0.00 0.00 75 1023.6
20260902130111 10 202 0.0 1.6 0.00 0.00 0.00 74 1023.6
20260902110605 10 213 0.0 1.6 0.00 0.00 0.00 73 1023.3
20260902110110 10 213 0.0 1.6 0.00 0.00 0.00 73 1023.3
20260902100605 11 210 0.0 0.0 0.00 0.03 0.00 71 1023.1
20260902100111 11 212 0.0 0.0 0.00 0.03 0.00 70 1023.1
20260902090605 12 229 0.0 0.0 0.00 0.03 0.00 66 1023.1
20260902090110 12 231 0.0 0.0 0.00 0.03 0.00 65 1023.2
20260902080605 14 38 0.0 0.0 0.00 0.03 0.00 59 1023.3
20260902080111 14 39 0.0 0.0 0.00 0.03 0.00 59 1023.4
20260902070605 14 38 0.0 0.0 0.00 0.03 0.00 58 1023.4
20260902070110 14 36 0.0 0.0 0.00 0.03 0.00 58 1023.4
20260902060110 15 181 0.0 1.6 0.00 0.03 0.00 55 1024.0
20260902050605 14 187 0.0 0.0 0.00 0.03 0.03 55 1023.9
20260902050112 14 188 0.0 0.0 0.00 0.03 0.03 54 1023.9
20260902020607 16 21 0.0 0.0 0.00 0.03 0.03 37 1023.2
20260902010607 21 17 1.6 9.7 0.00 0.03 0.03 22 1023.1
20260902010113 21 20 1.6 9.7 0.00 0.03 0.03 22 1023.2